Location: Treviso
(45.6669°N, 12.2430°E)
Time: 06:22:18
(UTC+01:00)

ISS - Pass Details

Date: 20 January 2021
Orbit: 418 x 421 km, 51.6° (Epoch: 23 January)

Event Time Altitude Azimuth Distance (km) Brightness Sun altitude
Rises 18:38:53 0° 228° (SW) 2,359 1.1 -17.0°
Reaches altitude 10° 18:40:59 10° 224° (SW) 1,499 -0.1 -17.3°
Maximum altitude 18:44:17 55° 146° (SE) 512 -3.5 -17.9°
Enters shadow 18:44:39 51° 117° (ESE) 535 -3.6 -18.0°
